Waarnemingen

Advertentie
Mijn weer
Biscarosse, Frankrijk (7503): temperatuur & dauwpunt: 17.10.2017 18:00:00 - 23.10.2017 18:00:00 (CEST)Biscarosse, Frankrijk (7503): temperatuur 5cm: 17.10.2017 18:00:00 - 23.10.2017 18:00:00 (CEST)Biscarosse, Frankrijk (7503): temperatuur -20cm & temperatuur -100cm: 17.10.2017 18:00:00 - 23.10.2017 18:00:00 (CEST)Biscarosse, Frankrijk (7503): windsnelheid & windstoten: 17.10.2017 18:00:00 - 23.10.2017 18:00:00 (CEST)Biscarosse, Frankrijk (7503): windrichting: 17.10.2017 18:00:00 - 23.10.2017 18:00:00 (CEST)Biscarosse, Frankrijk (7503): luchtdruk: 17.10.2017 18:00:00 - 23.10.2017 18:00:00 (CEST)Biscarosse, Frankrijk (7503): zicht: 17.10.2017 18:00:00 - 23.10.2017 18:00:00 (CEST)Biscarosse, Frankrijk (7503): Zonneschijnduur: 17.10.2017 18:00:00 - 23.10.2017 18:00:00 (CEST)Biscarosse, Frankrijk (7503): neerslag: 17.10.2017 18:00:00 - 23.10.2017 18:00:00 (CEST)
Datum & Tijd tt [°C] td [°C] tt 5cm [°C] tt -20cm [°C] tt -100cm [°C] ff [km/u] ff [kn] fx [km/u] fx [kn] dd ppp [hPa] vv [km] sd [min] rr [mm]
23.10.2017 18:00:00 16,9 10,5 16,6 18,7 19,6 9 5 12 6 WNW 1027,0 20 23 0,0
23.10.2017 17:00:00 18,5 9,8 22,7 18,3 19,6 8 4 11 6 WNW 1026,9 20 53 0,0
23.10.2017 16:00:00 19,2 10,5 23,3 17,8 19,6 7 4 14 8 WZW 1027,0 20 56 0,0
23.10.2017 15:00:00 18,7 11,7 24,1 17,2 19,6 9 5 16 8 WZW 1027,6 20 58 0,0
23.10.2017 14:00:00 19,3 12,1 26,4 16,6 19,7 9 5 14 8 WZW 1027,8 20 60 0,0
23.10.2017 13:00:00 19,1 12,8 24,0 16,2 19,7 13 7 17 9 ZW 1027,8 25 60 0,0
23.10.2017 12:00:00 18,2 12,9 19,6 16,0 19,7 11 6 16 9 ZZW 1027,7 8 47 0,0
23.10.2017 11:00:00 16,4 12,6 15,5 16,0 19,7 6 3 14 7 ZZO 1027,6 20 60 0,0
23.10.2017 10:00:00 13,0 11,9 12,4 16,1 19,7 8 5 14 8 ZO 1027,3 20 4 0,0
23.10.2017 09:00:00 12,2 11,3 11,4 16,2 19,8 9 5 15 8 ZO 1027,5 20 5 0,0
23.10.2017 08:00:00 - - - - - - - - - - - - - -
23.10.2017 07:00:00 - - - - - - - - - - - - - -
23.10.2017 06:00:00 12,6 11,0 12,0 16,4 19,8 5 3 8 4 O 1027,4 20 0 0,0
23.10.2017 05:00:00 - - - - - - - - - - - - - -
23.10.2017 04:00:00 - - - - - - - - - - - - - -
23.10.2017 03:00:00 - - - - - - - - - - - - - -
23.10.2017 02:00:00 - - - - - - - - - - - - - -
23.10.2017 01:00:00 - - - - - - - - - - - - - -
23.10.2017 00:00:00 - - - - - - - - - - - - - -
22.10.2017 23:00:00 - - - - - - - - - - - - - -
22.10.2017 22:00:00 - - - - - - - - - - - - - -
22.10.2017 21:00:00 - - - - - - - - - - - - - -
22.10.2017 20:00:00 - - - - - - - - - - - - - -
22.10.2017 19:00:00 - - - - - - - - - - - - - -
22.10.2017 18:00:00 - - - - - - - - - - - - - -
22.10.2017 17:00:00 - - - - - - - - - - - - - -
22.10.2017 16:00:00 - - - - - - - - - - - - - -
22.10.2017 15:00:00 - - - - - - - - - - - - - -
22.10.2017 14:00:00 - - - - - - - - - - - - - -
22.10.2017 13:00:00 - - - - - - - - - - - - - -
22.10.2017 12:00:00 - - - - - - - - - - - - - -
22.10.2017 11:00:00 - - - - - - - - - - - - - -
22.10.2017 10:00:00 - - - - - - - - - - - - - -
22.10.2017 09:00:00 - - - - - - - - - - - - - -
22.10.2017 08:00:00 - - - - - - - - - - - - - -
22.10.2017 07:00:00 - - - - - - - - - - - - - -
22.10.2017 06:00:00 - - - - - - - - - - - - - -
22.10.2017 05:00:00 - - - - - - - - - - - - - -
22.10.2017 04:00:00 - - - - - - - - - - - - - -
22.10.2017 03:00:00 - - - - - - - - - - - - - -
22.10.2017 02:00:00 - - - - - - - - - - - - - -
22.10.2017 01:00:00 - - - - - - - - - - - - - -
22.10.2017 00:00:00 - - - - - - - - - - - - - -
21.10.2017 23:00:00 - - - - - - - - - - - - - -
21.10.2017 22:00:00 - - - - - - - - - - - - - -
21.10.2017 21:00:00 - - - - - - - - - - - - - -
21.10.2017 20:00:00 - - - - - - - - - - - - - -
21.10.2017 19:00:00 - - - - - - - - - - - - - -
21.10.2017 18:00:00 - - - - - - - - - - - - - -
21.10.2017 17:00:00 - - - - - - - - - - - - - -
21.10.2017 16:00:00 - - - - - - - - - - - - - -
21.10.2017 15:00:00 - - - - - - - - - - - - - -
21.10.2017 14:00:00 - - - - - - - - - - - - - -
21.10.2017 13:00:00 - - - - - - - - - - - - - -
21.10.2017 12:00:00 - - - - - - - - - - - - - -
21.10.2017 11:00:00 - - - - - - - - - - - - - -
21.10.2017 10:00:00 - - - - - - - - - - - - - -
21.10.2017 09:00:00 - - - - - - - - - - - - - -
21.10.2017 08:00:00 - - - - - - - - - - - - - -
21.10.2017 07:00:00 - - - - - - - - - - - - - -
21.10.2017 06:00:00 - - - - - - - - - - - - - -
21.10.2017 05:00:00 - - - - - - - - - - - - - -
21.10.2017 04:00:00 - - - - - - - - - - - - - -
21.10.2017 03:00:00 - - - - - - - - - - - - - -
21.10.2017 02:00:00 - - - - - - - - - - - - - -
21.10.2017 01:00:00 - - - - - - - - - - - - - -
21.10.2017 00:00:00 17,2 13,3 16,3 19,7 20,4 15 8 29 16 OZO 1016,1 20 0 0,0
20.10.2017 23:00:00 17,7 14,4 16,7 19,9 20,4 14 8 23 13 ZO 1016,2 20 0 0,0
20.10.2017 22:00:00 17,6 15,0 16,8 20,1 20,4 12 7 19 10 ZO 1016,5 19 0 0,0
20.10.2017 21:00:00 17,7 15,1 16,4 20,3 20,5 9 5 16 9 ZO 1016,6 20 0 0,0
20.10.2017 20:00:00 17,2 14,8 16,2 20,4 20,4 7 4 10 5 OZO 1016,6 20 0 0,0
20.10.2017 19:00:00 19,1 15,2 17,8 20,4 20,5 2 1 8 4 ZZW 1016,5 5 23 0,0
20.10.2017 18:00:00 21,3 14,2 20,7 20,1 20,5 6 3 14 8 ZW 1016,7 10 57 0,0
20.10.2017 17:00:00 21,3 15,6 24,1 19,8 20,5 11 6 15 8 ZZW 1017,1 13 42 0,0
20.10.2017 16:00:00 22,2 14,6 25,5 19,3 20,5 12 7 14 8 ZW 1017,1 19 47 0,0
20.10.2017 15:00:00 20,4 15,2 22,6 19,1 20,5 10 5 16 8 ZZW 1017,3 20 10 0,0
20.10.2017 14:00:00 19,6 16,8 20,5 18,8 20,5 9 5 13 7 ZZW 1017,5 12 0 0,0
20.10.2017 13:00:00 18,9 17,0 19,9 18,6 20,6 9 5 16 9 ZZW 1017,9 13 0 0,0
20.10.2017 12:00:00 18,4 17,1 19,0 18,4 20,6 9 5 13 7 ZZW 1017,7 7 0 0,0
20.10.2017 11:00:00 17,5 16,5 16,7 18,4 20,6 5 3 9 5 Z 1017,5 12 0 0,0
20.10.2017 10:00:00 16,4 15,8 15,3 18,4 20,6 6 3 9 5 ZO 1016,8 20 5 0,0
20.10.2017 09:00:00 15,9 15,1 15,3 18,4 20,6 4 2 7 4 ZO 1016,5 18 0 0,0
20.10.2017 08:00:00 16,4 15,4 16,0 18,4 20,6 5 3 19 10 ZO 1015,6 15 0 0,2
20.10.2017 07:00:00 17,0 15,7 16,4 18,4 20,6 13 7 19 10 WNW 1015,3 11 0 0,0
20.10.2017 06:00:00 17,4 15,6 16,8 18,4 20,6 18 10 31 17 NW 1014,9 9 0 0,0
20.10.2017 05:00:00 18,3 16,3 17,3 18,5 20,6 26 14 32 17 WNW 1014,6 17 0 0,0
20.10.2017 04:00:00 18,1 15,4 15,6 18,6 20,7 18 10 33 18 W 1014,0 15 0 0,0
20.10.2017 03:00:00 16,1 13,2 15,6 18,7 20,6 11 6 19 10 Z 1013,9 20 0 0,0
20.10.2017 02:00:00 16,0 12,7 15,5 18,8 20,7 10 5 18 10 ZZO 1013,6 20 0 0,0
20.10.2017 01:00:00 16,1 13,0 15,5 19,0 20,7 11 6 19 10 Z 1013,2 20 0 0,0
20.10.2017 00:00:00 16,0 13,1 14,9 19,2 20,7 12 6 24 13 ZZO 1012,6 20 0 0,0
19.10.2017 23:00:00 15,5 13,2 13,9 19,4 20,7 14 8 22 12 ZO 1012,1 20 0 0,0
19.10.2017 22:00:00 14,5 13,0 13,6 19,7 20,7 8 4 10 6 ZZO 1012,0 20 0 0,0
19.10.2017 21:00:00 15,2 13,4 14,5 19,9 20,7 6 3 16 9 ZZO 1011,7 20 0 0,0
19.10.2017 20:00:00 15,7 13,5 15,1 20,0 20,7 6 4 18 10 ZO 1012,0 19 0 0,0
19.10.2017 19:00:00 17,1 13,6 16,6 20,0 20,8 13 7 22 12 ZZW 1011,2 16 26 0,0
19.10.2017 18:00:00 18,6 14,3 18,5 19,9 20,8 19 10 24 13 WZW 1011,5 19 25 0,0
19.10.2017 17:00:00 20,1 14,5 22,5 19,6 20,8 14 8 17 9 ZW 1011,0 20 50 0,0
19.10.2017 16:00:00 20,3 15,1 20,1 19,3 20,8 13 7 16 9 WZW 1010,7 20 12 0,0
19.10.2017 15:00:00 18,6 13,7 20,0 19,0 20,9 13 7 16 9 WZW 1011,0 25 0 0,0
19.10.2017 14:00:00 19,0 13,8 21,3 18,7 20,9 10 6 16 9 WZW 1011,3 25 7 0,0
19.10.2017 13:00:00 19,0 13,6 20,3 18,4 20,9 14 8 21 11 W 1011,6 25 19 0,0
19.10.2017 12:00:00 19,2 13,4 19,3 18,2 20,9 12 6 20 11 WZW 1011,5 20 20 0,0
19.10.2017 11:00:00 18,1 13,8 17,5 18,2 20,9 16 9 24 13 W 1011,1 18 21 0,0
19.10.2017 10:00:00 17,4 13,7 17,0 18,2 20,9 16 9 27 14 W 1010,6 16 33 0,0
19.10.2017 09:00:00 17,1 13,4 15,7 18,3 21,0 21 12 26 14 W 1010,1 20 8 0,0
19.10.2017 08:00:00 17,1 14,0 16,0 18,4 21,0 21 11 26 14 W 1009,9 16 0 0,0
19.10.2017 07:00:00 17,1 14,0 15,0 18,5 21,0 18 10 31 17 W 1009,9 17 0 0,0
19.10.2017 06:00:00 16,8 14,3 14,5 18,6 21,0 26 14 34 18 WNW 1009,3 17 0 0,2
19.10.2017 05:00:00 14,6 14,0 14,3 18,7 21,0 6 3 12 7 ZZO 1009,3 14 0 0,0
19.10.2017 04:00:00 14,4 13,8 13,7 18,9 21,0 9 5 19 10 ZO 1009,2 19 0 0,0
19.10.2017 03:00:00 14,0 13,2 13,6 19,1 21,0 10 6 18 10 ZO 1009,3 20 0 0,0
19.10.2017 02:00:00 14,6 13,6 14,1 19,2 21,0 7 4 12 7 ZO 1009,4 20 0 0,0
19.10.2017 01:00:00 14,9 13,6 14,6 19,4 21,1 7 4 25 14 ZO 1009,5 20 0 0,0
19.10.2017 00:00:00 15,9 13,9 14,7 19,6 21,0 23 12 27 15 ZW 1009,7 20 0 0,0
18.10.2017 23:00:00 15,7 13,5 14,4 19,7 21,0 16 9 22 12 WZW 1009,1 20 0 0,0
18.10.2017 22:00:00 15,5 14,0 14,7 19,9 21,1 16 9 23 12 W 1009,2 20 0 0,0
18.10.2017 21:00:00 15,5 14,0 14,9 20,1 21,0 20 11 29 16 W 1009,5 17 0 0,0
18.10.2017 20:00:00 15,6 14,5 14,6 20,3 21,0 19 10 27 14 W 1009,2 19 0 0,0
18.10.2017 19:00:00 15,2 14,4 14,9 20,5 21,0 20 11 42 23 W 1008,6 15 17 1,4
18.10.2017 18:00:00 15,1 14,3 14,7 20,6 21,1 40 21 55 30 W 1008,5 2,5 0 2,8
18.10.2017 17:00:00 17,6 16,5 17,0 20,6 21,0 14 7 27 14 O 1007,9 10 0 0,6
18.10.2017 16:00:00 18,2 16,9 17,8 20,6 21,0 10 6 17 9 ONO 1008,1 15 0 0,2
18.10.2017 15:00:00 18,3 16,6 17,8 20,5 21,1 10 5 15 8 ONO 1008,8 20 0 0,0
18.10.2017 14:00:00 19,0 17,3 19,1 20,4 21,0 4 2 7 4 NNO 1010,0 11 0 0,4
18.10.2017 13:00:00 18,5 17,0 18,2 20,4 21,0 5 3 9 5 NO 1010,7 18 0 0,0
18.10.2017 12:00:00 17,5 16,5 16,5 20,5 21,0 7 4 20 11 ZO 1011,2 14 0 0,2
18.10.2017 11:00:00 16,4 15,6 15,8 20,7 21,0 11 6 27 15 OZO 1011,3 9 0 1,6
18.10.2017 10:00:00 16,0 15,0 15,4 20,9 21,0 16 8 27 14 OZO 1011,5 10 1 0,0
18.10.2017 09:00:00 15,6 14,6 15,3 21,1 21,0 13 7 22 12 O 1011,2 8 0 0,2
18.10.2017 08:00:00 16,0 14,9 15,5 21,3 21,0 13 7 23 12 OZO 1011,3 11 0 0,0
18.10.2017 07:00:00 16,6 15,3 16,0 21,5 21,0 13 7 19 11 OZO 1011,5 11 0 0,0
18.10.2017 06:00:00 17,2 15,0 16,1 21,7 21,0 10 5 29 16 ZO 1012,3 7 0 0,6
18.10.2017 05:00:00 18,0 15,3 17,5 21,8 21,0 13 7 24 13 ZO 1012,4 20 0 0,0
18.10.2017 04:00:00 18,1 15,2 17,3 22,0 21,0 9 5 16 9 OZO 1012,5 20 0 0,0
18.10.2017 03:00:00 18,5 15,2 18,2 22,2 21,0 10 5 25 13 OZO 1013,2 20 0 0,0
18.10.2017 02:00:00 19,1 15,0 18,8 22,3 20,9 14 8 27 14 OZO 1013,4 20 0 0,0
18.10.2017 01:00:00 19,8 14,4 19,3 22,5 21,0 11 6 21 12 OZO 1013,8 20 0 0,0
18.10.2017 00:00:00 20,6 14,7 19,5 22,6 21,0 7 4 20 11 OZO 1014,2 19 0 0,0
17.10.2017 23:00:00 20,8 15,8 19,3 22,7 20,9 13 7 29 15 ZZW 1014,5 12 0 0,0
17.10.2017 22:00:00 22,1 14,5 20,6 22,8 20,9 9 5 13 7 ZZO 1014,2 20 0 0,0
17.10.2017 21:00:00 21,5 14,4 20,5 22,9 21,0 6 3 9 5 OZO 1014,0 16 0 0,0
17.10.2017 20:00:00 21,8 14,7 20,8 22,9 20,9 4 2 7 4 ZO 1014,3 7 0 0,0
17.10.2017 19:00:00 22,6 13,6 21,9 22,8 20,9 4 2 10 6 Z 1013,8 6 31 0,0
17.10.2017 18:00:00 25,4 15,4 26,5 22,5 20,9 0 0 10 5 N 1013,8 20 34 0,0

tt = temperatuur
td = dauwpunt
tt 5cm = temperatuur 5cm
tt -20cm = temperatuur -20cm
tt -100cm = temperatuur -100cm
ff = windsnelheid
fx = windstoten
dd = windrichting
ppp = luchtdruk
vv = zicht
sd = Zonneschijnduur
rr = neerslag

Weerstations in de omgeving